User: anonymous   Login
Location: Bothell
(47.7630°N, 122.2040°W)
Time: 12:57:47
(UTC-07:00)
Language:

Oscar 16 - Orbit

View from above orbital plane
View from above orbital plane
View from above satellite
View from above satellite

Ground track
Ground track

The orbit data is extracted from the following two-line orbital elements,

1 20439U 90005D   17262.80457668 +.00000004 +00000-0 +17798-4 0  9994
2 20439 098.6145 201.5252 0009743 241.0959 171.7094 14.32692735444703
Epoch (UTC): 19 September 2017 19:18:35
Eccentricity: 0.0009743
inclination: 98.6145°
perigee height: 776 km
apogee height: 790 km
right ascension of ascending node: 201.5252°
argument of perigee: 241.0959°
revolutions per day: 14.32692735
mean anomaly at epoch: 171.7094°
orbit number at epoch: 44470

The dashed part of the orbit path shows where the satellite is in the earth's shadow,  

DLR